,,Stat6,,Stat2,,Stat8,,Stat9,,Stat10,,Wind1,,Wind1,
time,status,PA1M_AVG,status,PR1M_SUM,status,RH1M_AVG,status,SR1M_AVG,status,TA1M_AVG,status,W1dAve1m,status,W1sAve1m,
2007-01-08, 17:24:00,VALID,918.666,VALID,0,VALID,73.7663,VALID,554.784,VALID,24.8784,VALID,267,VALID,1.48382,
2007-01-08, 17:25:00,VALID,918.655,VALID,0,VALID,72.7345,VALID,515.504,VALID,24.9976,VALID,281,VALID,1.46771,
2007-01-08, 17:26:00,VALID,918.666,VALID,0,VALID,72.7014,VALID,559.484,VALID,25.1272,VALID,245,VALID,1.15146,
2007-01-08, 17:27:00,VALID,918.679,VALID,0,VALID,71.0344,VALID,602.82,VALID,25.2271,VALID,95,VALID,0.655887,
2007-01-08, 17:28:00,VALID,918.668,VALID,0,VALID,69.6699,VALID,650.553,VALID,25.2655,VALID,108,VALID,0.928622,
2007-01-08, 17:29:00,VALID,918.651,VALID,0,VALID,69.3609,VALID,671.931,VALID,25.3017,VALID,198,VALID,0.611583,
2007-01-08, 17:30:00,VALID,918.646,VALID,0,VALID,70.1824,VALID,675.531,VALID,25.3887,VALID,217,VALID,0.773082,
2007-01-08, 17:31:00,VALID,918.634,VALID,0,VALID,70.5512,VALID,669.537,VALID,25.5499,VALID,242,VALID,1.24434,
2007-01-08, 17:32:00,VALID,918.638,VALID,0,VALID,69.3724,VALID,674.563,VALID,25.6046,VALID,117,VALID,0.565451,
2007-01-08, 17:33:00,VALID,918.612,VALID,0,VALID,70.1074,VALID,676.754,VALID,25.731,VALID,350,VALID,0.353924,
2007-01-08, 17:34:00,VALID,918.599,VALID,0,VALID,67.5464,VALID,678.333,VALID,25.6851,VALID,73,VALID,1.5459,
2007-01-08, 17:35:00,VALID,918.57,VALID,0,VALID,68.0614,VALID,678.197,VALID,25.6628,VALID,277,VALID,2.07622,
2007-01-08, 17:36:00,VALID,918.581,VALID,0,VALID,68.4378,VALID,532.451,VALID,25.7791,VALID,283,VALID,1.76618,
2007-01-08, 17:37:00,VALID,918.58,VALID,0,VALID,66.8902,VALID,407.557,VALID,25.8337,VALID,251,VALID,1.56585,
2007-01-08, 17:38:00,VALID,918.597,VALID,0,VALID,69.0456,VALID,529.14,VALID,25.7578,VALID,278,VALID,1.8125,
2007-01-08, 17:39:00,VALID,918.613,VALID,0,VALID,68.3182,VALID,432.519,VALID,25.7875,VALID,281,VALID,1.77362,
2007-01-08, 17:40:00,VALID,918.624,VALID,0,VALID,68.8981,VALID,498.608,VALID,25.8748,VALID,279,VALID,1.53161,
2007-01-08, 17:41:00,VALID,918.634,VALID,0,VALID,68.1949,VALID,607.455,VALID,25.9488,VALID,263,VALID,0.642708,
2007-01-08, 17:42:00,VALID,918.605,VALID,0,VALID,66.6334,VALID,704.603,VALID,26.1014,VALID,314,VALID,0.642223,
2007-01-08, 17:43:00,VALID,918.602,VALID,0,VALID,66.3472,VALID,562.032,VALID,26.2462,VALID,250,VALID,0.781445,
2007-01-08, 17:44:00,VALID,918.592,VALID,0,VALID,66.2684,VALID,684.141,VALID,26.3338,VALID,324,VALID,0.515092,
2007-01-08, 17:45:00,VALID,918.594,VALID,0,VALID,65.5271,VALID,659.518,VALID,26.4789,VALID,275,VALID,0.895531,
2007-01-08, 17:46:00,VALID,918.572,VALID,0,VALID,64.1359,VALID,592.359,VALID,26.6819,VALID,242,VALID,0.765447,
2007-01-08, 17:47:00,VALID,918.551,VALID,0,VALID,63.6642,VALID,678.35,VALID,26.6448,VALID,265,VALID,1.30078,
2007-01-08, 17:48:00,VALID,918.554,VALID,0,VALID,65.5321,VALID,645.034,VALID,26.5876,VALID,259,VALID,0.972747,
2007-01-08, 17:49:00,VALID,918.55,VALID,0,VALID,65.3694,VALID,616.642,VALID,26.6752,VALID,268,VALID,1.44438,
2007-01-08, 17:50:00,VALID,918.545,VALID,0,VALID,65.7076,VALID,603.227,VALID,26.7357,VALID,276,VALID,1.62373,
2007-01-08, 17:51:00,VALID,918.55,VALID,0,VALID,65.5957,VALID,583.818,VALID,26.8783,VALID,122,VALID,0.569568,
2007-01-08, 17:52:00,VALID,918.542,VALID,0,VALID,65.9518,VALID,583.716,VALID,27.11,VALID,288,VALID,0.908381,
2007-01-08, 17:53:00,VALID,918.541,VALID,0,VALID,65.5054,VALID,632.417,VALID,27.166,VALID,255,VALID,1.08008,
2007-01-08, 17:54:00,VALID,918.538,VALID,0,VALID,63.495,VALID,698.846,VALID,27.0838,VALID,267,VALID,0.739139,
2007-01-08, 17:55:00,VALID,918.527,VALID,0,VALID,64.5873,VALID,659.977,VALID,27.0369,VALID,216,VALID,0.924665,
2007-01-08, 17:56:00,VALID,918.518,VALID,0,VALID,65.8691,VALID,587.808,VALID,27.1468,VALID,278,VALID,1.52634,
2007-01-08, 17:57:00,VALID,918.504,VALID,0,VALID,66.14,VALID,552.081,VALID,27.2765,VALID,278,VALID,1.98017,
2007-01-08, 17:58:00,VALID,918.49,VALID,0,VALID,64.3826,VALID,555.426,VALID,27.3861,VALID,274,VALID,1.56574,
2007-01-08, 17:59:00,VALID,918.476,VALID,0,VALID,64.3317,VALID,555.935,VALID,27.3663,VALID,277,VALID,1.79092,
2007-01-08, 18:00:00,VALID,918.462,VALID,0,VALID,64.5403,VALID,592.274,VALID,27.2144,VALID,241,VALID,1.38177,
2007-01-08, 18:01:00,VALID,918.439,VALID,0,VALID,64.5416,VALID,522.228,VALID,27.1141,VALID,274,VALID,1.81357,
2007-01-08, 18:02:00,VALID,918.419,VALID,0,VALID,63.4009,VALID,528.698,VALID,27.1325,VALID,270,VALID,1.55039,
2007-01-08, 18:03:00,VALID,918.417,VALID,0,VALID,63.8727,VALID,578.316,VALID,26.8684,VALID,277,VALID,1.48056,
2007-01-08, 18:04:00,VALID,918.406,VALID,0,VALID,65.9721,VALID,492.835,VALID,26.7223,VALID,274,VALID,0.993164,
2007-01-08, 18:05:00,VALID,918.398,VALID,0,VALID,66.346,VALID,580.659,VALID,26.6641,VALID,276,VALID,1.12749,
2007-01-08, 18:06:00,VALID,918.372,VALID,0,VALID,67.1929,VALID,589.931,VALID,26.7442,VALID,273,VALID,1.45499,
2007-01-08, 18:07:00,VALID,918.386,VALID,0,VALID,65.1481,VALID,559.111,VALID,26.7794,VALID,230,VALID,0.780895,
2007-01-08, 18:08:00,VALID,918.362,VALID,0,VALID,66.6626,VALID,523.128,VALID,26.8599,VALID,275,VALID,1.4832,
2007-01-08, 18:09:00,VALID,918.35,VALID,0,VALID,63.9375,VALID,508.966,VALID,26.6928,VALID,166,VALID,0.661719,
2007-01-08, 18:10:00,VALID,918.322,VALID,0,VALID,65.2384,VALID,464.443,VALID,26.5073,VALID,267,VALID,1.15365,
2007-01-08, 18:11:00,VALID,918.322,VALID,0,VALID,66.4706,VALID,524.47,VALID,26.433,VALID,185,VALID,0.599702,
2007-01-08, 18:12:00,VALID,918.311,VALID,0,VALID,66.6461,VALID,523.213,VALID,26.5121,VALID,291,VALID,0.695486,
2007-01-08, 18:13:00,VALID,918.288,VALID,0,VALID,67.3022,VALID,450.094,VALID,26.7624,VALID,278,VALID,1.07485,
2007-01-08, 18:14:00,VALID,918.293,VALID,0,VALID,66.7503,VALID,490.508,VALID,26.8813,VALID,267,VALID,1.34617,
2007-01-08, 18:15:00,VALID,918.308,VALID,0,VALID,65.6885,VALID,522.178,VALID,26.9395,VALID,258,VALID,1.32161,
2007-01-08, 18:16:00,VALID,918.287,VALID,0,VALID,65.7572,VALID,535.236,VALID,26.7559,VALID,265,VALID,1.97582,
2007-01-08, 18:17:00,VALID,918.273,VALID,0,VALID,66.9792,VALID,586.263,VALID,26.4676,VALID,268,VALID,1.6495,
2007-01-08, 18:18:00,VALID,918.286,VALID,0,VALID,68.6946,VALID,678.741,VALID,26.3454,VALID,250,VALID,1.18004,
2007-01-08, 18:19:00,VALID,918.282,VALID,0,VALID,67.8287,VALID,697.437,VALID,26.3189,VALID,223,VALID,0.809775,
2007-01-08, 18:20:00,VALID,918.266,VALID,0,VALID,67.0644,VALID,690.39,VALID,26.4223,VALID,240,VALID,1.10547,
2007-01-08, 18:21:00,VALID,918.247,VALID,0,VALID,68.4734,VALID,630.736,VALID,26.4711,VALID,276,VALID,1.70277,
2007-01-08, 18:22:00,VALID,918.256,VALID,0,VALID,68.8307,VALID,571.813,VALID,26.6784,VALID,249,VALID,0.813262,
2007-01-08, 18:23:00,VALID,918.251,VALID,0,VALID,65.4342,VALID,570.879,VALID,26.5671,VALID,164,VALID,1.12881,
2007-01-08, 18:24:00,VALID,918.248,VALID,0,VALID,66.9182,VALID,510.206,VALID,26.4252,VALID,247,VALID,1.52344,
2007-01-08, 18:25:00,VALID,918.233,VALID,0,VALID,68.3055,VALID,474.903,VALID,26.2833,VALID,273,VALID,2.67933,
2007-01-08, 18:26:00,VALID,918.236,VALID,0,VALID,67.7791,VALID,490.933,VALID,26.0409,VALID,239,VALID,1.28725,
2007-01-08, 18:27:00,VALID,918.217,VALID,0,VALID,70.0451,VALID,489.608,VALID,25.9339,VALID,275,VALID,2.08113,
2007-01-08, 18:28:00,VALID,918.219,VALID,0,VALID,70.8182,VALID,512.193,VALID,26.0832,VALID,237,VALID,1.57867,
2007-01-08, 18:29:00,VALID,918.226,VALID,0,VALID,69.2732,VALID,520.496,VALID,26.1249,VALID,107,VALID,0.544829,
2007-01-08, 18:30:00,VALID,918.212,VALID,0,VALID,68.6069,VALID,546.307,VALID,26.2255,VALID,71,VALID,0.346418,
2007-01-08, 18:31:00,VALID,918.208,VALID,0,VALID,68.4467,VALID,566.073,VALID,26.4158,VALID,82,VALID,0.361471,
2007-01-08, 18:32:00,VALID,918.208,VALID,0,VALID,68.7162,VALID,561.301,VALID,26.604,VALID,189,VALID,0.267624,
2007-01-08, 18:33:00,VALID,918.199,VALID,0,VALID,69.45,VALID,540.534,VALID,26.84,VALID,287,VALID,0.83346,
2007-01-08, 18:34:00,VALID,918.215,VALID,0,VALID,68.9095,VALID,523.383,VALID,27.0045,VALID,270,VALID,1.05357,
2007-01-08, 18:35:00,VALID,918.21,VALID,0,VALID,66.6321,VALID,522.976,VALID,27.108,VALID,282,VALID,0.720486,
2007-01-08, 18:36:00,VALID,918.225,VALID,0,VALID,65.3999,VALID,531.924,VALID,27.0811,VALID,269,VALID,0.730556,
2007-01-08, 18:37:00,VALID,918.232,VALID,0,VALID,65.2804,VALID,525.013,VALID,26.9758,VALID,243,VALID,0.673328,
2007-01-08, 18:38:00,VALID,918.243,VALID,0,VALID,65.9454,VALID,512.532,VALID,26.807,VALID,26,VALID,0.321766,
2007-01-08, 18:39:00,VALID,918.246,VALID,0,VALID,66.4337,VALID,498.727,VALID,26.7934,VALID,318,VALID,0.607701,
2007-01-08, 18:40:00,VALID,918.244,VALID,0,VALID,67.3543,VALID,477.756,VALID,26.858,VALID,234,VALID,1.0811,
2007-01-08, 18:41:00,VALID,918.234,VALID,0,VALID,67.0848,VALID,464.426,VALID,26.6676,VALID,268,VALID,1.17551,
2007-01-08, 18:42:00,VALID,918.231,VALID,0,VALID,67.8096,VALID,472.967,VALID,26.6292,VALID,311,VALID,1.2106,
2007-01-08, 18:43:00,VALID,918.221,VALID,0,VALID,68.9248,VALID,477.331,VALID,26.5225,VALID,284,VALID,1.40589,
2007-01-08, 18:44:00,VALID,918.219,VALID,0,VALID,68.9795,VALID,480.642,VALID,26.3932,VALID,223,VALID,0.718572,
2007-01-08, 18:45:00,VALID,918.217,VALID,0,VALID,69.2732,VALID,492.206,VALID,26.4119,VALID,260,VALID,0.65554,
2007-01-08, 18:46:00,VALID,918.207,VALID,0,VALID,69.4576,VALID,496.197,VALID,26.4511,VALID,70,VALID,0.36101,
2007-01-08, 18:47:00,VALID,918.187,VALID,0,VALID,69.8645,VALID,499.678,VALID,26.57,VALID,248,VALID,0.740278,
2007-01-08, 18:48:00,VALID,918.171,VALID,0,VALID,69.7666,VALID,460.724,VALID,26.6544,VALID,269,VALID,1.01262,
2007-01-08, 18:49:00,VALID,918.153,VALID,0,VALID,68.8625,VALID,462.15,VALID,26.6605,VALID,276,VALID,1.70084,
2007-01-08, 18:50:00,VALID,918.149,VALID,0,VALID,68.4327,VALID,458.33,VALID,26.6188,VALID,279,VALID,1.95238,
2007-01-08, 18:51:00,VALID,918.158,VALID,0,VALID,69.5822,VALID,494.516,VALID,26.5315,VALID,299,VALID,0.876999,
2007-01-08, 18:52:00,VALID,918.136,VALID,0,VALID,69.2579,VALID,590.576,VALID,26.5807,VALID,307,VALID,0.385356,
2007-01-08, 18:53:00,VALID,918.136,VALID,0,VALID,68.9248,VALID,651.504,VALID,26.6163,VALID,229,VALID,0.484557,
2007-01-08, 18:54:00,VALID,918.131,VALID,0,VALID,66.7859,VALID,664.443,VALID,26.6518,VALID,173,VALID,0.862614,
2007-01-08, 18:55:00,VALID,918.11,VALID,0,VALID,67.4853,VALID,684.803,VALID,26.2739,VALID,172,VALID,0.771129,
2007-01-08, 18:56:00,VALID,918.089,VALID,0,VALID,70.5919,VALID,710.223,VALID,26.0205,VALID,271,VALID,1.12749,
2007-01-08, 18:57:00,VALID,918.078,VALID,0,VALID,71.3472,VALID,691.154,VALID,26.2051,VALID,256,VALID,1.31143,
2007-01-08, 18:58:00,VALID,918.082,VALID,0,VALID,69.0329,VALID,588.759,VALID,26.2604,VALID,134,VALID,0.613009,
2007-01-08, 18:59:00,VALID,918.053,VALID,0,VALID,68.4352,VALID,642.419,VALID,26.3544,VALID,35,VALID,0.692014,
2007-01-08, 19:00:00,VALID,918.05,VALID,0,VALID,69.3139,VALID,659.434,VALID,26.4517,VALID,266,VALID,0.672053,
2007-01-08, 19:01:00,VALID,918.046,VALID,0,VALID,69.9103,VALID,641.824,VALID,26.687,VALID,270,VALID,0.600074,
2007-01-08, 19:02:00,VALID,918.015,VALID,0,VALID,66.2239,VALID,629.378,VALID,26.9515,VALID,109,VALID,0.773624,
2007-01-08, 19:03:01,VALID,917.991,VALID,0,VALID,66.5469,VALID,611.548,VALID,27.0643,VALID,93,VALID,0.389172,
2007-01-08, 19:04:00,VALID,917.977,VALID,0,VALID,67.1598,VALID,621.532,VALID,26.9795,VALID,250,VALID,1.64864,
2007-01-08, 19:05:00,VALID,917.948,VALID,0,VALID,68.2813,VALID,621.77,VALID,26.8606,VALID,278,VALID,2.27671,
2007-01-08, 19:06:01,VALID,917.947,VALID,0,VALID,68.4276,VALID,604.925,VALID,26.7478,VALID,262,VALID,1.92912,
2007-01-08, 19:07:00,VALID,917.948,VALID,0,VALID,68.2076,VALID,591.765,VALID,26.7456,VALID,262,VALID,1.65789,
2007-01-08, 19:08:00,VALID,917.919,VALID,0,VALID,66.571,VALID,585.635,VALID,26.6457,VALID,264,VALID,0.999256,
2007-01-08, 19:09:00,VALID,917.918,VALID,0,VALID,68.1466,VALID,568.773,VALID,26.5225,VALID,266,VALID,1.85556,
2007-01-08, 19:10:01,VALID,917.91,VALID,0,VALID,67.9406,VALID,571.473,VALID,26.4734,VALID,202,VALID,0.817909,
2007-01-08, 19:11:00,VALID,917.873,VALID,0,VALID,67.7231,VALID,564.001,VALID,26.3728,VALID,95,VALID,0.388719,
2007-01-08, 19:12:01,VALID,917.852,VALID,0,VALID,67.2997,VALID,566.039,VALID,26.3509,VALID,131,VALID,1.40681,
2007-01-08, 19:13:01,VALID,917.838,VALID,0,VALID,68.7824,VALID,564.409,VALID,25.888,VALID,125,VALID,0.92569,
2007-01-08, 19:14:00,VALID,917.83,VALID,0,VALID,70.5028,VALID,556.7,VALID,25.8693,VALID,260,VALID,1.16824,
2007-01-08, 19:15:00,VALID,917.83,VALID,0,VALID,71.3828,VALID,535.847,VALID,25.9336,VALID,285,VALID,0.969638,
2007-01-08, 19:16:00,VALID,917.815,VALID,0,VALID,70.9085,VALID,515.759,VALID,25.9985,VALID,242,VALID,1.35957,
2007-01-08, 19:17:00,VALID,917.799,VALID,0,VALID,69.5097,VALID,518.102,VALID,26.1062,VALID,274,VALID,0.707919,
2007-01-08, 19:18:00,VALID,917.781,VALID,0,VALID,69.717,VALID,528.817,VALID,26.1789,VALID,304,VALID,1.14915,
2007-01-08, 19:19:01,VALID,917.752,VALID,0,VALID,69.0736,VALID,526.134,VALID,26.2076,VALID,285,VALID,1.83301,
2007-01-08, 19:20:00,VALID,917.746,VALID,0,VALID,71.6625,VALID,517.27,VALID,26.1824,VALID,281,VALID,1.75872,
2007-01-08, 19:21:00,VALID,917.716,VALID,0,VALID,70.9822,VALID,518.9,VALID,26.2115,VALID,268,VALID,1.73933,
2007-01-08, 19:22:00,VALID,917.686,VALID,0,VALID,69.895,VALID,492.325,VALID,26.228,VALID,274,VALID,2.38932,
2007-01-08, 19:23:00,VALID,917.688,VALID,0,VALID,70.3897,VALID,474.716,VALID,26.1016,VALID,274,VALID,1.97433,
2007-01-08, 19:24:01,VALID,917.668,VALID,0,VALID,70.246,VALID,460.809,VALID,26.1989,VALID,283,VALID,1.03999,
2007-01-08, 19:25:01,VALID,917.658,VALID,0,VALID,69.7551,VALID,456.122,VALID,26.3447,VALID,270,VALID,1.5089,
2007-01-08, 19:26:00,VALID,917.653,VALID,0,VALID,69.4868,VALID,451.588,VALID,26.473,VALID,259,VALID,1.24698,
2007-01-08, 19:27:00,VALID,917.64,VALID,0,VALID,69.1092,VALID,453.49,VALID,26.4744,VALID,259,VALID,1.66921,
2007-01-08, 19:28:01,VALID,917.631,VALID,0,VALID,69.352,VALID,454.543,VALID,26.3735,VALID,270,VALID,1.56609,
2007-01-08, 19:29:00,VALID,917.619,VALID,0,VALID,68.9184,VALID,452.675,VALID,26.3192,VALID,272,VALID,1.82903,
2007-01-08, 19:30:00,VALID,917.614,VALID,0,VALID,70.0705,VALID,460.588,VALID,26.2891,VALID,249,VALID,1.60268,
2007-01-08, 19:31:00,VALID,917.618,VALID,0,VALID,69.656,VALID,462.863,VALID,26.2765,VALID,179,VALID,1.00382,
2007-01-08, 19:32:00,VALID,917.603,VALID,0,VALID,68.3335,VALID,464.528,VALID,26.2012,VALID,120,VALID,0.536701,
2007-01-08, 19:33:00,VALID,917.575,VALID,0,VALID,68.4238,VALID,463.78,VALID,26.1569,VALID,276,VALID,1.5641,
2007-01-08, 19:34:01,VALID,917.548,VALID,0,VALID,69.656,VALID,449.432,VALID,26.1411,VALID,276,VALID,1.18359,
2007-01-08, 19:35:00,VALID,917.528,VALID,0,VALID,69.9166,VALID,477.127,VALID,26.1889,VALID,269,VALID,2.04161,
2007-01-08, 19:36:00,VALID,917.516,VALID,0,VALID,70.0107,VALID,490.491,VALID,26.0661,VALID,276,VALID,1.82667,
2007-01-08, 19:37:00,VALID,917.488,VALID,0,VALID,71.2467,VALID,488.674,VALID,26.036,VALID,288,VALID,1.64134,
2007-01-08, 19:38:00,VALID,917.476,VALID,0,VALID,69.3622,VALID,497.946,VALID,26.154,VALID,284,VALID,1.4135,
2007-01-08, 19:39:00,VALID,917.455,VALID,0,VALID,69.9688,VALID,506.878,VALID,26.228,VALID,277,VALID,2.27083,
2007-01-08, 19:40:00,VALID,917.443,VALID,0,VALID,68.2521,VALID,510.58,VALID,26.1828,VALID,278,VALID,1.67305,
2007-01-08, 19:41:01,VALID,917.417,VALID,0,VALID,69.3597,VALID,503.804,VALID,25.921,VALID,265,VALID,2.01953,
2007-01-08, 19:42:00,VALID,917.402,VALID,0,VALID,70.1875,VALID,503.159,VALID,25.7077,VALID,265,VALID,2.48988,
2007-01-08, 19:43:00,VALID,917.39,VALID,0,VALID,70.9428,VALID,498.761,VALID,25.4227,VALID,266,VALID,1.49883,
2007-01-08, 19:44:01,VALID,917.374,VALID,0,VALID,71.8457,VALID,483.444,VALID,25.4333,VALID,276,VALID,1.87754,
2007-01-08, 19:45:00,VALID,917.343,VALID,0,VALID,70.3731,VALID,473.052,VALID,25.4621,VALID,268,VALID,2.07262,
2007-01-08, 19:46:01,VALID,917.347,VALID,0,VALID,72.3607,VALID,464.392,VALID,25.4142,VALID,264,VALID,1.20527,
2007-01-08, 19:47:00,VALID,917.326,VALID,0,VALID,72.3022,VALID,471.456,VALID,25.4744,VALID,277,VALID,1.5593,
2007-01-08, 19:48:00,VALID,917.326,VALID,0,VALID,73.1274,VALID,471.354,VALID,25.6472,VALID,275,VALID,1.78543,
2007-01-08, 19:49:00,VALID,917.295,VALID,0,VALID,71.7579,VALID,468.161,VALID,25.815,VALID,279,VALID,1.57831,
2007-01-08, 19:50:00,VALID,917.28,VALID,0,VALID,70.9415,VALID,466.192,VALID,26.0247,VALID,272,VALID,1.33594,
2007-01-08, 19:51:00,VALID,917.253,VALID,0,VALID,69.9637,VALID,464.171,VALID,26.2061,VALID,273,VALID,2.13486,
2007-01-08, 19:52:00,VALID,917.241,VALID,0,VALID,69.7043,VALID,462.422,VALID,26.2248,VALID,264,VALID,1.70998,
2007-01-08, 19:53:00,VALID,917.213,VALID,0,VALID,68.879,VALID,468.28,VALID,26.0373,VALID,253,VALID,1.21699,
2007-01-08, 19:54:00,VALID,917.199,VALID,0,VALID,71.7948,VALID,467.771,VALID,25.9766,VALID,258,VALID,1.30007,
2007-01-08, 19:55:01,VALID,917.183,VALID,0,VALID,69.7831,VALID,473.086,VALID,25.8757,VALID,162,VALID,0.703311,
2007-01-08, 19:56:00,VALID,917.168,VALID,0,VALID,70.2981,VALID,473.578,VALID,25.9371,VALID,219,VALID,0.680729,
2007-01-08, 19:57:00,VALID,917.144,VALID,0,VALID,70.7266,VALID,479.335,VALID,26.1149,VALID,231,VALID,1.40272,
2007-01-08, 19:58:00,VALID,917.123,VALID,0,VALID,70.0769,VALID,474.495,VALID,26.2545,VALID,270,VALID,1.61719,
2007-01-08, 19:59:00,VALID,917.117,VALID,0,VALID,69.1638,VALID,478.095,VALID,26.3024,VALID,273,VALID,1.74663,
2007-01-08, 20:00:01,VALID,917.094,VALID,0,VALID,70.4075,VALID,487.571,VALID,26.3337,VALID,281,VALID,1.95122,
2007-01-08, 20:01:00,VALID,917.09,VALID,0,VALID,69.8836,VALID,485.38,VALID,26.3777,VALID,282,VALID,2.35392,
2007-01-08, 20:02:00,VALID,917.081,VALID,0,VALID,69.8581,VALID,481.067,VALID,26.4679,VALID,277,VALID,2.1431,
2007-01-08, 20:03:00,VALID,917.086,VALID,0,VALID,69.2147,VALID,485.312,VALID,26.5322,VALID,274,VALID,1.89272,
2007-01-08, 20:04:00,VALID,917.085,VALID,0,VALID,69.984,VALID,480.439,VALID,26.4977,VALID,277,VALID,1.38335,
2007-01-08, 20:05:01,VALID,917.08,VALID,0,VALID,69.689,VALID,468.178,VALID,26.5545,VALID,275,VALID,1.96771,
2007-01-08, 20:06:01,VALID,917.075,VALID,0,VALID,69.7208,VALID,500.816,VALID,26.5904,VALID,277,VALID,2.02398,
2007-01-08, 20:07:00,VALID,917.079,VALID,0,VALID,69.0405,VALID,501.936,VALID,26.6192,VALID,266,VALID,1.89063,
2007-01-08, 20:08:00,VALID,917.066,VALID,0,VALID,68.1097,VALID,491.035,VALID,26.4569,VALID,259,VALID,1.99479,
2007-01-08, 20:09:01,VALID,917.045,VALID,0,VALID,68.6412,VALID,513.483,VALID,26.1983,VALID,265,VALID,1.77035,
2007-01-08, 20:10:00,VALID,917.021,VALID,0,VALID,70.0476,VALID,519.019,VALID,25.9559,VALID,260,VALID,1.69606,
2007-01-08, 20:11:00,VALID,917.002,VALID,0,VALID,71.8101,VALID,546.053,VALID,25.8273,VALID,270,VALID,1.54055,
2007-01-08, 20:12:00,VALID,916.996,VALID,0,VALID,72.0275,VALID,554.73,VALID,25.8434,VALID,275,VALID,1.85849,
2007-01-08, 20:13:01,VALID,916.988,VALID,0,VALID,70.7419,VALID,548.005,VALID,25.9953,VALID,287,VALID,0.937678,
2007-01-08, 20:14:01,VALID,916.952,VALID,0,VALID,70.176,VALID,546.341,VALID,26.1446,VALID,285,VALID,1.3423,
2007-01-08, 20:15:01,VALID,916.916,VALID,0,VALID,69.2325,VALID,555.001,VALID,26.3092,VALID,278,VALID,1.3912,
2007-01-08, 20:16:00,VALID,916.889,VALID,0,VALID,70.4291,VALID,566.735,VALID,26.3997,VALID,271,VALID,1.15454,
2007-01-08, 20:17:00,VALID,916.877,VALID,0,VALID,71.2366,VALID,581.797,VALID,26.5761,VALID,254,VALID,1.16879,
2007-01-08, 20:18:01,VALID,916.87,VALID,0,VALID,67.788,VALID,587.944,VALID,26.6821,VALID,268,VALID,1.67932,
2007-01-08, 20:19:00,VALID,916.863,VALID,0,VALID,67.156,VALID,584.497,VALID,26.7083,VALID,267,VALID,1.09829,
2007-01-08, 20:20:00,VALID,916.824,VALID,0,VALID,66.744,VALID,601.919,VALID,26.74,VALID,278,VALID,1.58079,
2007-01-08, 20:21:00,VALID,916.813,VALID,0,VALID,68.8765,VALID,595.942,VALID,26.6466,VALID,273,VALID,1.93197,
2007-01-08, 20:22:01,VALID,916.791,VALID,0,VALID,68.893,VALID,612.787,VALID,26.6311,VALID,264,VALID,1.48754,
2007-01-08, 20:23:01,VALID,916.763,VALID,0,VALID,67.1712,VALID,651.521,VALID,26.7209,VALID,266,VALID,1.20015,
2007-01-08, 20:24:00,VALID,916.738,VALID,0,VALID,67.4205,VALID,669.775,VALID,26.7561,VALID,280,VALID,1.42378,
2007-01-08, 20:25:01,VALID,916.695,VALID,0,VALID,67.582,VALID,649.585,VALID,26.9052,VALID,270,VALID,0.895833,
2007-01-08, 20:26:00,VALID,916.681,VALID,0,VALID,68.233,VALID,631.347,VALID,27.0076,VALID,271,VALID,0.722301,
2007-01-08, 20:27:01,VALID,916.642,VALID,0,VALID,67.7892,VALID,653.354,VALID,27.1117,VALID,266,VALID,1.36589,
2007-01-08, 20:28:00,VALID,916.61,VALID,0,VALID,66.4884,VALID,656.513,VALID,27.1919,VALID,270,VALID,1.20022,
2007-01-08, 20:29:00,VALID,916.608,VALID,0,VALID,66.4235,VALID,656.037,VALID,27.0726,VALID,227,VALID,0.737995,
2007-01-08, 20:30:01,VALID,916.57,VALID,0,VALID,67.409,VALID,651.249,VALID,27.1272,VALID,234,VALID,1.15365,
2007-01-08, 20:31:00,VALID,916.534,VALID,0,VALID,66.5202,VALID,669.537,VALID,27.2885,VALID,259,VALID,2.70346,
2007-01-08, 20:32:01,VALID,916.544,VALID,0,VALID,65.2905,VALID,680.32,VALID,27.0141,VALID,243,VALID,1.61052,
2007-01-08, 20:33:01,VALID,916.533,VALID,0,VALID,66.5494,VALID,669.69,VALID,26.8506,VALID,233,VALID,0.931641,
2007-01-08, 20:34:00,VALID,916.506,VALID,0,VALID,66.6448,VALID,654.747,VALID,26.9116,VALID,225,VALID,0.497275,
2007-01-08, 20:35:01,VALID,916.498,VALID,0,VALID,67.053,VALID,635.813,VALID,27.0377,VALID,228,VALID,0.87282,
2007-01-08, 20:36:00,VALID,916.469,VALID,0,VALID,66.7313,VALID,622.891,VALID,27.0701,VALID,249,VALID,1.77539,
2007-01-08, 20:37:01,VALID,916.484,VALID,0,VALID,66.3917,VALID,613.348,VALID,27.1577,VALID,44,VALID,0.572731,
2007-01-08, 20:38:01,VALID,916.491,VALID,0,VALID,65.5194,VALID,628.936,VALID,27.1444,VALID,172,VALID,0.771205,
2007-01-08, 20:39:01,VALID,916.463,VALID,0,VALID,66.2264,VALID,635.44,VALID,26.8984,VALID,300,VALID,0.912574,
2007-01-08, 20:40:01,VALID,916.438,VALID,0,VALID,68.9439,VALID,620.089,VALID,26.8693,VALID,269,VALID,1.78125,
2007-01-08, 20:41:00,VALID,916.406,VALID,0,VALID,67.849,VALID,683.665,VALID,26.8567,VALID,271,VALID,2.69722,
2007-01-08, 20:42:00,VALID,916.407,VALID,0,VALID,68.6399,VALID,696.044,VALID,26.9087,VALID,233,VALID,1.33957,
2007-01-08, 20:43:01,VALID,916.399,VALID,0,VALID,67.6519,VALID,699.814,VALID,27.083,VALID,263,VALID,2.1408,
2007-01-08, 20:44:00,VALID,916.412,VALID,0,VALID,68.6768,VALID,661.301,VALID,27.1735,VALID,277,VALID,1.0878,
2007-01-08, 20:45:01,VALID,916.353,VALID,0,VALID,66.6384,VALID,624.317,VALID,27.2285,VALID,258,VALID,1.40625,
2007-01-08, 20:46:01,VALID,916.361,VALID,0,VALID,68.3284,VALID,620.395,VALID,27.0791,VALID,164,VALID,1.50056,
2007-01-08, 20:47:01,VALID,916.341,VALID,0,VALID,66.1616,VALID,608.117,VALID,26.9591,VALID,229,VALID,0.87593,
2007-01-08, 20:48:01,VALID,916.327,VALID,0,VALID,66.7122,VALID,568.909,VALID,26.8761,VALID,121,VALID,0.350446,
2007-01-08, 20:49:01,VALID,916.295,VALID,0,VALID,65.9925,VALID,546.12,VALID,26.9753,VALID,287,VALID,1.45543,
2007-01-08, 20:50:00,VALID,916.298,VALID,0,VALID,66.6664,VALID,555.545,VALID,26.9652,VALID,284,VALID,1.52725,
2007-01-08, 20:51:01,VALID,916.287,VALID,0,VALID,67.4065,VALID,555.29,VALID,27.1075,VALID,281,VALID,1.40048,
2007-01-08, 20:52:01,VALID,916.268,VALID,0,VALID,67.5235,VALID,566.82,VALID,27.2339,VALID,242,VALID,0.952925,
2007-01-08, 20:53:00,VALID,916.244,VALID,0,VALID,67.1903,VALID,629.344,VALID,27.2339,VALID,198,VALID,1.31979,
2007-01-08, 20:54:00,VALID,916.267,VALID,0,VALID,67.9495,VALID,662.728,VALID,27.1502,VALID,244,VALID,0.832589,
2007-01-08, 20:55:01,VALID,916.247,VALID,0,VALID,68.0207,VALID,686.875,VALID,27.3823,VALID,285,VALID,0.807351,
2007-01-08, 20:56:00,VALID,916.233,VALID,0,VALID,66.8902,VALID,662.167,VALID,27.6089,VALID,239,VALID,1.08247,
2007-01-08, 20:57:01,VALID,916.236,VALID,0,VALID,66.3536,VALID,642.011,VALID,27.6154,VALID,193,VALID,1.06827,
2007-01-08, 20:58:01,VALID,916.216,VALID,0,VALID,66.0764,VALID,642.741,VALID,27.5572,VALID,297,VALID,1.14644,